contact:dominique.lefevre@mio.osupytheas.fr, maurice.libes@osupytheas.fr, didier.mallarino@osupytheas.fr
Project:EMSO http://www.emso-fr.org/EMSO-France
Depth: 2436.0 m
Title:EMSO Ligure Ouest : Data MII capteur AQUADOPP
Date,Latitude,Longitude,X_East,Y_North,Z_Up,Amplitude_X,Amplitude_Y,Amplitude_Z,Batterie,SoundSpeed,Heading,Pitch,Roll,Pressure,TIS,Speed,Direction
, degrees North, degrees East, m.s-1, m.s-1,m.s-1, 1, 1, 1, Volt, m.s-1, degree, degree, degree, dbar, degree_C, m.s-1, degree
2020-07-10T00:04:02,42.805,6.029,0.032,0.012,0.014,104.0,106.0,101.0,13.4,1505.3,324.8,-0.8,1.8,2470.552,13.31,0.034,69.4
2020-07-10T00:07:02,42.805,6.029,0.039,0.007,0.01,104.0,109.0,101.0,13.4,1505.3,327.5,-0.8,1.8,2470.516,13.31,0.039,79.8
2020-07-10T00:10:03,42.805,6.029,0.036,0.007,-0.029,104.0,106.0,101.0,13.4,1505.3,325.5,-0.7,1.8,2470.523,13.32,0.036,79.0
2020-07-10T00:13:02,42.805,6.029,0.011,0.018,-0.013,103.0,107.0,101.0,13.3,1505.3,325.3,-0.7,1.9,2470.518,13.32,0.021,31.4
2020-07-10T00:16:03,42.805,6.029,0.045,0.015,0.016,104.0,107.0,101.0,13.4,1505.3,325.0,-0.7,1.8,2470.505,13.32,0.047,71.6
2020-07-10T00:19:03,42.805,6.029,0.028,-0.007,-0.03,102.0,107.0,102.0,13.4,1505.3,325.4,-0.7,1.8,2470.49,13.32,0.028,104.0
2020-07-10T00:22:02,42.805,6.029,0.012,0.015,-0.003,103.0,106.0,101.0,13.4,1505.3,326.9,-0.7,1.9,2470.505,13.32,0.019,38.7
2020-07-10T00:25:03,42.805,6.029,0.012,0.014,-0.022,104.0,106.0,100.0,13.4,1505.3,323.2,-0.7,1.8,2470.485,13.32,0.018,40.6
2020-07-10T00:28:03,42.805,6.029,0.029,0.007,0.002,102.0,106.0,101.0,13.4,1505.3,326.8,-0.7,1.8,2470.461,13.32,0.029,76.4
2020-07-10T00:31:03,42.805,6.029,0.053,0.014,-0.016,103.0,107.0,100.0,13.4,1505.3,324.5,-0.7,1.8,2470.482,13.32,0.054,75.2
2020-07-10T00:34:03,42.805,6.029,0.051,0.018,0.003,103.0,108.0,101.0,13.3,1505.3,324.3,-0.7,1.8,2470.492,13.32,0.054,70.6
2020-07-10T00:37:02,42.805,6.029,0.004,0.009,-0.037,104.0,106.0,101.0,13.4,1505.3,327.6,-0.7,1.8,2470.449,13.32,0.009,24.0
2020-07-10T00:40:03,42.805,6.029,0.009,0.026,-0.024,104.0,107.0,101.0,13.4,1505.3,323.2,-0.7,1.9,2470.449,13.32,0.027,19.1
2020-07-10T00:43:03,42.805,6.029,0.007,0.02,-0.008,104.0,108.0,101.0,13.4,1505.3,326.3,-0.7,1.8,2470.446,13.32,0.021,19.3
2020-07-10T00:46:03,42.805,6.029,0.053,0.014,0.0,104.0,111.0,101.0,13.3,1505.3,324.2,-0.7,1.8,2470.43,13.32,0.054,75.2
2020-07-10T00:49:03,42.805,6.029,0.049,0.011,0.0,103.0,109.0,101.0,13.4,1505.3,328.6,-0.7,1.8,2470.467,13.32,0.05,77.3
2020-07-10T00:52:02,42.805,6.029,0.036,0.009,-0.009,104.0,106.0,101.0,13.3,1505.3,326.4,-0.7,1.8,2470.436,13.32,0.037,76.0
2020-07-10T00:55:03,42.805,6.029,0.035,0.026,0.006,103.0,107.0,102.0,13.4,1505.3,324.4,-0.7,1.8,2470.443,13.32,0.043,53.4
2020-07-10T00:58:02,42.805,6.029,0.015,0.012,-0.004,103.0,108.0,101.0,13.4,1505.3,326.5,-0.7,1.8,2470.448,13.32,0.019,51.3
2020-07-10T01:04:02,42.805,6.029,0.038,0.013,0.004,106.0,111.0,104.0,13.4,1505.2,323.1,-0.7,1.8,2470.526,13.3,0.04,71.1
2020-07-10T01:07:03,42.805,6.029,0.032,0.021,-0.022,104.0,107.0,101.0,13.3,1505.3,326.5,-0.7,1.8,2470.464,13.31,0.038,56.7
2020-07-10T01:10:03,42.805,6.029,0.021,0.002,-0.029,103.0,108.0,101.0,13.3,1505.3,325.4,-0.7,1.8,2470.499,13.32,0.021,84.6
2020-07-10T01:13:03,42.805,6.029,0.032,0.011,0.005,104.0,109.0,101.0,13.4,1505.3,323.9,-0.7,1.8,2470.446,13.32,0.033,71.0
2020-07-10T01:16:03,42.805,6.029,0.021,0.005,-0.002,104.0,108.0,101.0,13.3,1505.3,328.3,-0.7,1.8,2470.44,13.32,0.021,76.6
2020-07-10T01:19:03,42.805,6.029,0.022,0.012,-0.024,103.0,107.0,100.0,13.4,1505.3,326.4,-0.7,1.8,2470.428,13.32,0.025,61.4
2020-07-10T01:22:02,42.805,6.029,0.024,0.0,-0.009,104.0,109.0,101.0,13.3,1505.3,323.3,-0.7,1.8,2470.491,13.32,0.024,90.0
2020-07-10T01:25:03,42.805,6.029,0.011,0.011,-0.044,104.0,110.0,101.0,13.4,1505.3,325.1,-0.7,1.8,2470.413,13.32,0.015,45.0
2020-07-10T01:28:03,42.805,6.029,0.017,0.01,-0.016,105.0,108.0,101.0,13.4,1505.3,324.2,-0.7,1.8,2470.424,13.32,0.019,59.5
2020-07-10T01:31:03,42.805,6.029,0.018,0.027,0.023,103.0,111.0,101.0,13.4,1505.3,323.7,-0.7,1.8,2470.436,13.32,0.032,33.7
2020-07-10T01:34:03,42.805,6.029,0.046,0.001,-0.008,103.0,108.0,101.0,13.4,1505.3,325.3,-0.7,1.8,2470.448,13.32,0.046,88.8
2020-07-10T01:37:02,42.805,6.029,0.046,0.007,0.014,103.0,109.0,102.0,13.3,1505.3,323.9,-0.7,1.8,2470.413,13.32,0.046,81.3
2020-07-10T01:40:03,42.805,6.029,0.028,0.017,0.009,104.0,109.0,101.0,13.4,1505.3,324.7,-0.7,1.8,2470.436,13.32,0.032,58.7
2020-07-10T01:43:03,42.805,6.029,0.034,-0.005,-0.018,103.0,110.0,101.0,13.4,1505.3,325.4,-0.7,1.8,2470.396,13.32,0.034,98.4
2020-07-10T01:46:02,42.805,6.029,0.016,0.01,-0.017,104.0,110.0,102.0,13.4,1505.3,325.3,-0.7,1.8,2470.434,13.32,0.018,58.0
2020-07-10T01:49:03,42.805,6.029,0.033,0.017,-0.014,105.0,111.0,101.0,13.4,1505.3,327.6,-0.7,1.8,2470.425,13.32,0.037,62.7
2020-07-10T01:52:02,42.805,6.029,0.017,0.006,0.018,105.0,111.0,101.0,13.4,1505.3,326.9,-0.7,1.8,2470.404,13.32,0.018,70.6
2020-07-10T01:55:03,42.805,6.029,0.043,0.015,-0.015,104.0,111.0,102.0,13.3,1505.3,327.8,-0.7,1.8,2470.385,13.32,0.045,70.8
2020-07-10T01:58:03,42.805,6.029,0.047,0.015,-0.025,103.0,110.0,101.0,13.3,1505.3,326.6,-0.7,1.9,2470.39,13.32,0.049,72.3
2020-07-10T02:04:02,42.805,6.029,0.041,0.016,-0.032,104.0,111.0,102.0,13.4,1505.2,323.4,-0.7,1.8,2470.453,13.3,0.044,68.7
2020-07-10T02:07:02,42.805,6.029,0.019,0.012,-0.009,104.0,112.0,102.0,13.3,1505.3,326.9,-0.7,1.8,2470.46,13.31,0.022,57.7
2020-07-10T02:10:03,42.805,6.029,0.033,0.015,0.003,104.0,111.0,103.0,13.4,1505.3,325.0,-0.7,1.9,2470.439,13.32,0.036,65.6
2020-07-10T02:13:03,42.805,6.029,0.039,0.001,-0.027,103.0,111.0,102.0,13.4,1505.3,325.2,-0.7,1.8,2470.413,13.32,0.039,88.5
2020-07-10T02:16:02,42.805,6.029,0.017,0.006,-0.008,104.0,113.0,102.0,13.4,1505.3,327.8,-0.7,1.8,2470.399,13.32,0.018,70.6
2020-07-10T02:19:03,42.805,6.029,0.007,0.014,-0.02,103.0,113.0,101.0,13.4,1505.3,323.2,-0.7,1.8,2470.387,13.32,0.015,26.6
2020-07-10T02:22:02,42.805,6.029,0.021,0.02,0.0,104.0,115.0,102.0,13.3,1505.3,327.3,-0.7,1.8,2470.41,13.32,0.028,46.4
2020-07-10T02:25:03,42.805,6.029,0.034,0.019,-0.038,103.0,112.0,102.0,13.4,1505.3,324.2,-0.7,1.8,2470.382,13.32,0.038,60.8
2020-07-10T02:28:03,42.805,6.029,0.051,0.021,0.023,104.0,114.0,101.0,13.4,1505.3,327.7,-0.7,1.8,2470.394,13.32,0.055,67.6
2020-07-10T02:31:03,42.805,6.029,0.015,0.001,0.007,104.0,113.0,102.0,13.4,1505.3,323.5,-0.7,1.9,2470.375,13.32,0.015,86.2
2020-07-10T02:34:03,42.805,6.029,0.03,-0.009,0.02,105.0,111.0,102.0,13.4,1505.3,323.9,-0.7,1.8,2470.377,13.32,0.031,106.7
2020-07-10T02:37:02,42.805,6.029,0.033,0.005,0.006,106.0,114.0,101.0,13.4,1505.3,324.6,-0.7,1.8,2470.387,13.32,0.033,81.4
2020-07-10T02:40:02,42.805,6.029,0.018,0.016,0.005,105.0,115.0,100.0,13.4,1505.3,326.4,-0.6,1.8,2470.386,13.32,0.024,48.4
2020-07-10T02:43:02,42.805,6.029,0.0,0.027,0.016,104.0,114.0,101.0,13.4,1505.3,327.2,-0.7,1.9,2470.371,13.32,0.026,0.0
2020-07-10T02:46:03,42.805,6.029,0.017,0.009,-0.01,103.0,119.0,102.0,13.3,1505.3,327.0,-0.7,1.8,2470.408,13.32,0.019,62.1
2020-07-10T02:49:02,42.805,6.029,0.01,0.03,0.004,105.0,116.0,101.0,13.4,1505.3,327.6,-0.7,1.8,2470.318,13.32,0.031,18.4
2020-07-10T02:52:02,42.805,6.029,0.023,0.003,-0.006,104.0,115.0,101.0,13.4,1505.3,327.1,-0.7,1.8,2470.373,13.32,0.023,82.6
2020-07-10T02:55:03,42.805,6.029,0.031,0.015,-0.006,105.0,116.0,101.0,13.3,1505.3,325.8,-0.7,1.9,2470.365,13.32,0.034,64.2
2020-07-10T02:58:02,42.805,6.029,0.024,0.009,0.001,104.0,116.0,101.0,13.3,1505.3,327.5,-0.7,1.8,2470.4,13.32,0.025,69.4
2020-07-10T03:04:02,42.805,6.029,0.051,0.015,-0.012,103.0,117.0,101.0,13.4,1505.2,326.2,-0.7,1.8,2470.435,13.3,0.053,73.6
2020-07-10T03:07:02,42.805,6.029,0.003,0.026,-0.017,104.0,116.0,102.0,13.4,1505.3,325.7,-0.7,1.8,2470.418,13.31,0.026,6.6
2020-07-10T03:10:03,42.805,6.029,0.034,0.024,-0.026,103.0,116.0,102.0,13.4,1505.3,323.0,-0.7,1.8,2470.396,13.31,0.041,54.8
2020-07-10T03:13:03,42.805,6.029,0.029,0.008,-0.016,104.0,116.0,102.0,13.4,1505.3,324.4,-0.7,1.8,2470.385,13.32,0.03,74.6
2020-07-10T03:16:03,42.805,6.029,0.051,0.023,0.001,104.0,116.0,101.0,13.3,1505.3,323.2,-0.7,1.8,2470.422,13.32,0.055,65.7
2020-07-10T03:19:03,42.805,6.029,0.032,-0.005,-0.004,104.0,114.0,101.0,13.3,1505.3,323.8,-0.7,1.8,2470.37,13.32,0.032,98.9
2020-07-10T03:22:02,42.805,6.029,0.018,0.012,-0.029,104.0,116.0,102.0,13.3,1505.3,326.6,-0.7,1.8,2470.404,13.32,0.021,56.3
2020-07-10T03:25:03,42.805,6.029,0.005,0.006,-0.028,104.0,116.0,103.0,13.4,1505.3,324.2,-0.7,1.8,2470.363,13.32,0.007,39.8
2020-07-10T03:28:03,42.805,6.029,0.021,0.02,0.003,105.0,116.0,101.0,13.4,1505.3,326.3,-0.7,1.8,2470.377,13.32,0.028,46.4
2020-07-10T03:31:02,42.805,6.029,0.0,0.015,-0.026,103.0,118.0,101.0,13.3,1505.3,327.2,-0.7,1.8,2470.379,13.32,0.015,0.0
2020-07-10T03:34:03,42.805,6.029,0.012,0.024,0.0,104.0,116.0,102.0,13.4,1505.3,323.5,-0.7,1.8,2470.346,13.32,0.026,26.6
2020-07-10T03:37:02,42.805,6.029,0.01,0.029,-0.025,103.0,118.0,100.0,13.4,1505.3,325.0,-0.7,1.8,2470.365,13.32,0.03,19.0
2020-07-10T03:40:03,42.805,6.029,0.008,0.013,-0.009,105.0,115.0,102.0,13.4,1505.3,326.6,-0.7,1.8,2470.398,13.32,0.015,31.6
2020-07-10T03:43:03,42.805,6.029,0.028,0.014,-0.019,105.0,115.0,101.0,13.4,1505.3,325.0,-0.7,1.8,2470.346,13.32,0.031,63.4
2020-07-10T03:46:03,42.805,6.029,0.025,0.01,-0.013,104.0,117.0,101.0,13.4,1505.3,325.4,-0.7,1.8,2470.363,13.32,0.026,68.2
2020-07-10T03:49:03,42.805,6.029,0.027,0.022,-0.027,105.0,116.0,102.0,13.4,1505.3,326.4,-0.7,1.8,2470.326,13.32,0.034,50.8
2020-07-10T03:52:03,42.805,6.029,0.044,0.011,-0.011,104.0,116.0,102.0,13.4,1505.3,324.1,-0.7,1.8,2470.365,13.32,0.045,76.0
2020-07-10T03:55:03,42.805,6.029,0.01,0.017,-0.048,103.0,117.0,102.0,13.4,1505.3,328.6,-0.7,1.9,2470.378,13.32,0.019,30.5
2020-07-10T03:58:03,42.805,6.029,0.041,0.01,-0.015,104.0,116.0,102.0,13.4,1505.3,327.8,-0.7,1.9,2470.334,13.32,0.042,76.3
2020-07-10T04:04:02,42.805,6.029,0.018,-0.005,-0.05,103.0,115.0,101.0,13.3,1505.2,327.9,-0.7,1.8,2470.382,13.3,0.018,105.5
2020-07-10T04:07:03,42.805,6.029,0.01,0.01,-0.033,103.0,119.0,101.0,13.4,1505.3,327.2,-0.7,1.8,2470.389,13.31,0.014,45.0
2020-07-10T04:10:03,42.805,6.029,0.024,0.006,-0.001,104.0,118.0,102.0,13.4,1505.3,324.5,-0.7,1.8,2470.339,13.31,0.024,76.0
2020-07-10T04:13:03,42.805,6.029,0.04,0.006,-0.005,103.0,118.0,102.0,13.3,1505.3,327.1,-0.7,1.8,2470.328,13.32,0.04,81.5
2020-07-10T04:16:03,42.805,6.029,0.004,0.029,-0.024,103.0,117.0,101.0,13.3,1505.3,323.1,-0.7,1.8,2470.374,13.32,0.029,7.8
2020-07-10T04:19:03,42.805,6.029,0.027,0.038,-0.013,105.0,117.0,102.0,13.4,1505.3,325.0,-0.7,1.8,2470.357,13.32,0.046,35.4
2020-07-10T04:22:02,42.805,6.029,0.03,0.004,-0.026,105.0,117.0,101.0,13.4,1505.3,326.5,-0.7,1.8,2470.348,13.32,0.03,82.4
2020-07-10T04:25:03,42.805,6.029,0.022,0.021,0.005,103.0,117.0,102.0,13.4,1505.3,326.8,-0.7,1.8,2470.384,13.32,0.03,46.3
2020-07-10T04:28:03,42.805,6.029,0.047,0.022,0.005,104.0,116.0,102.0,13.4,1505.3,327.9,-0.7,1.8,2470.28,13.32,0.051,64.9
2020-07-10T04:31:03,42.805,6.029,0.01,0.003,-0.02,104.0,116.0,102.0,13.3,1505.3,325.9,-0.7,1.8,2470.333,13.32,0.01,73.3
2020-07-10T04:34:03,42.805,6.029,0.02,0.032,0.009,104.0,118.0,101.0,13.4,1505.3,327.7,-0.7,1.8,2470.346,13.32,0.037,32.0
2020-07-10T04:37:02,42.805,6.029,0.021,0.003,-0.037,104.0,122.0,102.0,13.3,1505.3,327.6,-0.7,1.8,2470.346,13.32,0.021,81.9
2020-07-10T04:40:03,42.805,6.029,0.043,0.012,-0.01,104.0,120.0,101.0,13.4,1505.3,323.9,-0.7,1.8,2470.322,13.32,0.044,74.4
2020-07-10T04:43:03,42.805,6.029,0.021,0.028,-0.008,105.0,117.0,101.0,13.3,1505.3,323.5,-0.7,1.8,2470.36,13.32,0.035,36.9
2020-07-10T04:46:03,42.805,6.029,0.024,0.002,-0.003,104.0,120.0,101.0,13.4,1505.3,323.3,-0.7,1.9,2470.306,13.32,0.024,85.2
2020-07-10T04:49:03,42.805,6.029,0.031,-0.003,-0.008,103.0,119.0,101.0,13.3,1505.3,323.4,-0.7,1.8,2470.319,13.32,0.031,95.5
2020-07-10T04:52:03,42.805,6.029,0.0,0.011,-0.004,104.0,118.0,101.0,13.4,1505.3,325.0,-0.7,1.8,2470.356,13.32,0.011,0.0
2020-07-10T04:55:02,42.805,6.029,0.036,0.01,0.003,104.0,119.0,102.0,13.3,1505.3,328.6,-0.7,1.8,2470.31,13.32,0.037,74.5
2020-07-10T04:58:03,42.805,6.029,0.01,0.006,-0.034,105.0,119.0,102.0,13.4,1505.3,326.8,-0.7,1.9,2470.336,13.32,0.011,59.0
2020-07-10T05:04:03,42.805,6.029,0.042,0.009,-0.02,104.0,116.0,101.0,13.3,1505.2,326.1,-0.7,1.8,2470.357,13.3,0.042,77.9
2020-07-10T05:07:02,42.805,6.029,0.001,0.03,-0.035,105.0,120.0,102.0,13.3,1505.3,325.7,-0.7,1.8,2470.35,13.31,0.03,1.9
2020-07-10T05:10:03,42.805,6.029,0.016,0.014,-0.011,104.0,119.0,102.0,13.3,1505.3,326.3,-0.8,1.8,2470.335,13.31,0.021,48.8
2020-07-10T05:13:03,42.805,6.029,0.026,0.005,-0.021,104.0,121.0,101.0,13.4,1505.3,322.7,-0.7,1.8,2470.331,13.32,0.026,79.1
2020-07-10T05:16:03,42.805,6.029,0.008,0.009,-0.031,103.0,119.0,102.0,13.4,1505.3,326.7,-0.8,1.9,2470.355,13.32,0.012,41.6
2020-07-10T05:19:03,42.805,6.029,0.008,0.021,-0.037,104.0,121.0,102.0,13.4,1505.3,324.9,-0.7,1.8,2470.346,13.32,0.022,20.9
2020-07-10T05:22:02,42.805,6.029,0.042,0.012,-0.035,105.0,121.0,101.0,13.4,1505.3,328.3,-0.7,1.8,2470.325,13.32,0.043,74.1
2020-07-10T05:25:03,42.805,6.029,0.03,0.023,-0.008,104.0,121.0,101.0,13.4,1505.3,326.5,-0.7,1.8,2470.354,13.32,0.037,52.5
2020-07-10T05:28:03,42.805,6.029,0.031,0.014,-0.011,104.0,120.0,102.0,13.3,1505.3,326.8,-0.7,1.8,2470.313,13.32,0.034,65.7
2020-07-10T05:31:03,42.805,6.029,0.026,0.027,0.014,104.0,118.0,103.0,13.3,1505.3,323.2,-0.7,1.8,2470.345,13.32,0.037,43.9
2020-07-10T05:34:03,42.805,6.029,0.021,0.002,-0.017,104.0,120.0,102.0,13.4,1505.3,326.7,-0.7,1.8,2470.317,13.32,0.021,84.6
2020-07-10T05:37:02,42.805,6.029,0.03,-0.01,-0.002,105.0,120.0,102.0,13.3,1505.3,324.3,-0.7,1.8,2470.317,13.32,0.031,108.4
2020-07-10T05:40:03,42.805,6.029,0.034,0.01,-0.025,104.0,120.0,102.0,13.3,1505.3,326.7,-0.7,1.8,2470.325,13.32,0.035,73.6
2020-07-10T05:43:03,42.805,6.029,0.025,0.01,0.018,104.0,119.0,102.0,13.4,1505.3,323.6,-0.7,1.8,2470.333,13.32,0.026,68.2
2020-07-10T05:46:03,42.805,6.029,-0.002,0.005,-0.025,106.0,120.0,102.0,13.4,1505.3,326.4,-0.7,1.9,2470.324,13.32,0.005,338.2
2020-07-10T05:49:03,42.805,6.029,0.017,0.01,-0.029,104.0,120.0,101.0,13.4,1505.3,327.7,-0.7,1.8,2470.273,13.32,0.019,59.5
2020-07-10T05:52:02,42.805,6.029,0.03,-0.007,-0.004,103.0,120.0,102.0,13.3,1505.3,327.2,-0.7,1.9,2470.304,13.32,0.03,103.1
2020-07-10T05:55:03,42.805,6.029,0.032,-0.021,-0.032,104.0,119.0,102.0,13.3,1505.3,325.3,-0.7,1.8,2470.332,13.32,0.038,123.3
2020-07-10T05:58:03,42.805,6.029,0.022,0.003,-0.01,106.0,118.0,102.0,13.3,1505.3,322.7,-0.7,1.8,2470.312,13.32,0.022,82.2
2020-07-10T06:04:02,42.805,6.029,0.027,-0.015,-0.039,104.0,120.0,101.0,13.4,1505.2,322.7,-0.8,1.8,2470.331,13.3,0.03,119.1
2020-07-10T06:07:03,42.805,6.029,0.027,0.003,0.005,104.0,115.0,102.0,13.4,1505.3,327.8,-0.7,1.8,2470.333,13.31,0.027,83.7
2020-07-10T06:10:03,42.805,6.029,0.028,0.006,0.002,104.0,119.0,101.0,13.4,1505.3,326.2,-0.7,1.8,2470.348,13.31,0.028,77.9
2020-07-10T06:13:03,42.805,6.029,0.008,0.014,-0.014,105.0,117.0,102.0,13.4,1505.3,324.0,-0.7,1.8,2470.384,13.32,0.016,29.7
2020-07-10T06:16:03,42.805,6.029,0.042,-0.007,-0.003,104.0,117.0,102.0,13.3,1505.3,324.3,-0.7,1.9,2470.324,13.32,0.042,99.5
2020-07-10T06:19:03,42.805,6.029,0.024,0.002,-0.029,104.0,119.0,101.0,13.3,1505.3,324.9,-0.7,1.8,2470.356,13.32,0.024,85.2
2020-07-10T06:22:03,42.805,6.029,0.044,0.013,0.007,105.0,119.0,101.0,13.4,1505.3,327.1,-0.7,1.8,2470.366,13.32,0.045,73.5
2020-07-10T06:25:03,42.805,6.029,0.024,0.015,-0.003,103.0,119.0,103.0,13.4,1505.3,327.3,-0.7,1.8,2470.324,13.32,0.028,58.0
2020-07-10T06:28:03,42.805,6.029,0.031,0.006,-0.013,104.0,116.0,102.0,13.4,1505.3,325.9,-0.7,1.8,2470.341,13.32,0.031,79.0
2020-07-10T06:31:03,42.805,6.029,0.03,-0.02,-0.001,104.0,116.0,101.0,13.4,1505.3,325.3,-0.7,1.9,2470.333,13.32,0.036,123.7
2020-07-10T06:34:03,42.805,6.029,0.022,0.001,-0.013,105.0,117.0,102.0,13.4,1505.3,325.7,-0.7,1.8,2470.365,13.32,0.022,87.4
2020-07-10T06:37:03,42.805,6.029,0.043,-0.011,-0.022,105.0,115.0,101.0,13.3,1505.3,325.6,-0.7,1.8,2470.35,13.32,0.044,104.3
2020-07-10T06:40:03,42.805,6.029,0.052,0.016,0.022,104.0,118.0,103.0,13.4,1505.3,323.5,-0.7,1.8,2470.317,13.32,0.054,72.9
2020-07-10T06:43:03,42.805,6.029,0.026,0.005,0.014,103.0,118.0,102.0,13.4,1505.3,325.4,-0.7,1.8,2470.33,13.32,0.026,79.1
2020-07-10T06:46:03,42.805,6.029,0.031,-0.003,-0.028,104.0,116.0,102.0,13.4,1505.3,323.4,-0.7,1.8,2470.314,13.32,0.031,95.5
2020-07-10T06:49:03,42.805,6.029,0.037,0.013,0.008,104.0,115.0,102.0,13.3,1505.3,327.5,-0.7,1.8,2470.363,13.32,0.039,70.6
2020-07-10T06:52:03,42.805,6.029,0.034,-0.011,-0.027,105.0,115.0,101.0,13.3,1505.3,324.7,-0.7,1.8,2470.328,13.32,0.035,107.9
2020-07-10T06:55:03,42.805,6.029,0.046,-0.01,0.01,104.0,115.0,102.0,13.4,1505.3,326.8,-0.7,1.9,2470.3,13.32,0.047,102.3
2020-07-10T06:58:03,42.805,6.029,0.01,-0.015,-0.017,104.0,113.0,102.0,13.4,1505.3,323.6,-0.7,1.8,2470.324,13.32,0.018,146.3
2020-07-10T07:04:02,42.805,6.029,0.041,0.004,-0.004,104.0,117.0,102.0,13.4,1505.2,325.9,-0.8,1.8,2470.392,13.3,0.041,84.4
2020-07-10T07:07:03,42.805,6.029,0.018,0.014,0.015,104.0,117.0,102.0,13.4,1505.3,324.1,-0.7,1.8,2470.334,13.31,0.022,52.1
2020-07-10T07:10:03,42.805,6.029,0.03,-0.008,-0.024,105.0,115.0,103.0,13.4,1505.3,323.8,-0.7,1.9,2470.401,13.31,0.031,104.9
2020-07-10T07:13:03,42.805,6.029,0.034,-0.005,0.019,104.0,112.0,101.0,13.4,1505.3,326.4,-0.7,1.9,2470.371,13.32,0.034,98.4
2020-07-10T07:16:03,42.805,6.029,0.036,-0.009,-0.033,105.0,113.0,103.0,13.4,1505.3,327.5,-0.7,1.8,2470.364,13.32,0.037,104.0
2020-07-10T07:19:03,42.805,6.029,0.04,-0.014,-0.019,105.0,116.0,102.0,13.4,1505.3,323.2,-0.7,1.8,2470.298,13.32,0.042,109.3
2020-07-10T07:22:02,42.805,6.029,0.03,-0.015,-0.007,105.0,116.0,101.0,13.4,1505.3,325.9,-0.7,1.8,2470.35,13.32,0.033,116.6
2020-07-10T07:28:02,42.805,6.029,0.058,0.003,-0.011,104.0,113.0,102.0,13.3,1505.2,323.7,-0.7,1.8,2470.401,13.3,0.058,87.0
2020-07-10T07:31:03,42.805,6.029,0.035,-0.001,-0.01,105.0,115.0,102.0,13.4,1505.3,324.9,-0.7,1.8,2470.386,13.31,0.035,91.6
2020-07-10T07:34:03,42.805,6.029,0.053,-0.009,-0.024,104.0,116.0,101.0,13.4,1505.3,325.2,-0.7,1.8,2470.409,13.31,0.053,99.6
2020-07-10T07:37:03,42.805,6.029,0.035,-0.012,-0.014,105.0,116.0,100.0,13.3,1505.3,324.3,-0.7,1.8,2470.381,13.32,0.037,108.9
2020-07-10T07:40:03,42.805,6.029,0.031,-0.011,-0.015,104.0,112.0,103.0,13.4,1505.3,325.4,-0.7,1.8,2470.365,13.32,0.032,109.5
2020-07-10T07:43:03,42.805,6.029,0.033,0.0,-0.014,104.0,115.0,102.0,13.4,1505.3,325.1,-0.7,1.8,2470.381,13.32,0.033,90.0
2020-07-10T07:46:03,42.805,6.029,0.034,0.002,0.003,105.0,116.0,102.0,13.4,1505.3,326.9,-0.7,1.8,2470.387,13.32,0.034,86.6
2020-07-10T07:49:03,42.805,6.029,0.034,0.004,-0.04,104.0,117.0,101.0,13.3,1505.3,324.5,-0.7,1.8,2470.386,13.32,0.034,83.3
2020-07-10T07:52:02,42.805,6.029,0.039,-0.011,0.011,105.0,113.0,103.0,13.3,1505.3,327.7,-0.7,1.8,2470.347,13.32,0.04,105.7
2020-07-10T07:55:03,42.805,6.029,0.037,-0.008,-0.026,104.0,114.0,101.0,13.4,1505.3,326.0,-0.7,1.8,2470.349,13.32,0.037,102.2
2020-07-10T07:58:03,42.805,6.029,0.034,-0.007,-0.007,105.0,111.0,102.0,13.4,1505.3,325.8,-0.7,1.8,2470.343,13.32,0.034,101.6
2020-07-10T08:01:03,42.805,6.029,0.057,-0.011,0.007,104.0,114.0,101.0,13.4,1505.3,325.6,-0.7,1.8,2470.394,13.32,0.058,100.9
2020-07-10T08:04:03,42.805,6.029,0.037,-0.008,0.002,103.0,112.0,101.0,13.4,1505.3,324.2,-0.7,1.8,2470.365,13.32,0.037,102.2
2020-07-10T08:07:03,42.805,6.029,0.049,-0.025,-0.002,106.0,112.0,102.0,13.4,1505.3,326.6,-0.7,1.8,2470.358,13.32,0.055,117.0
2020-07-10T08:10:02,42.805,6.029,0.065,-0.002,-0.002,105.0,112.0,102.0,13.4,1505.3,326.1,-0.7,1.8,2470.366,13.32,0.065,91.8
2020-07-10T08:13:02,42.805,6.029,0.045,-0.004,0.002,106.0,114.0,105.0,13.4,1505.3,327.7,-0.7,1.8,2470.359,13.32,0.045,95.1
2020-07-10T08:16:03,42.805,6.029,0.031,0.015,0.007,106.0,111.0,102.0,13.3,1505.3,324.1,-0.7,1.8,2470.378,13.32,0.034,64.2
2020-07-10T08:19:03,42.805,6.029,0.051,0.0,-0.025,105.0,114.0,102.0,13.4,1505.3,323.9,-0.7,1.8,2470.355,13.32,0.051,90.0
2020-07-10T08:22:03,42.805,6.029,0.04,-0.009,0.006,106.0,114.0,102.0,13.4,1505.3,325.1,-0.7,1.8,2470.384,13.32,0.041,102.7
2020-07-10T08:25:03,42.805,6.029,0.055,-0.011,0.0,105.0,113.0,102.0,13.4,1505.3,325.5,-0.7,1.8,2470.389,13.32,0.056,101.3
2020-07-10T08:28:03,42.805,6.029,0.049,0.0,-0.005,104.0,114.0,103.0,13.4,1505.3,327.9,-0.7,1.8,2470.334,13.32,0.049,90.0
2020-07-10T08:31:03,42.805,6.029,0.031,0.0,-0.007,106.0,115.0,102.0,13.4,1505.3,326.9,-0.7,1.8,2470.365,13.32,0.03,90.0
2020-07-10T08:34:03,42.805,6.029,0.033,-0.016,-0.009,103.0,114.0,102.0,13.4,1505.3,326.4,-0.7,1.8,2470.388,13.32,0.036,115.9
2020-07-10T08:37:02,42.805,6.029,0.038,0.009,0.005,105.0,114.0,102.0,13.4,1505.3,323.1,-0.7,1.8,2470.377,13.32,0.039,76.7
2020-07-10T08:40:03,42.805,6.029,0.036,0.003,0.013,105.0,113.0,102.0,13.4,1505.3,324.7,-0.7,1.8,2470.385,13.32,0.036,85.2
2020-07-10T08:43:03,42.805,6.029,0.048,0.009,-0.002,105.0,110.0,102.0,13.4,1505.3,324.7,-0.7,1.8,2470.334,13.32,0.048,79.4
2020-07-10T08:46:03,42.805,6.029,0.031,0.0,-0.011,104.0,111.0,103.0,13.4,1505.3,326.9,-0.7,1.8,2470.358,13.32,0.03,90.0
2020-07-10T08:49:03,42.805,6.029,0.048,-0.005,0.015,105.0,114.0,102.0,13.3,1505.3,327.0,-0.7,1.8,2470.352,13.32,0.048,95.9
2020-07-10T08:52:02,42.805,6.029,0.03,-0.001,-0.003,106.0,112.0,102.0,13.4,1505.3,327.7,-0.7,1.9,2470.39,13.32,0.03,91.9
2020-07-10T08:55:03,42.805,6.029,0.042,-0.012,-0.02,105.0,116.0,101.0,13.4,1505.3,327.8,-0.7,1.8,2470.354,13.32,0.043,105.9
2020-07-10T08:58:03,42.805,6.029,0.059,-0.009,0.011,105.0,112.0,102.0,13.4,1505.3,325.0,-0.7,1.9,2470.43,13.32,0.059,98.7
2020-07-10T09:01:03,42.805,6.029,0.041,0.002,-0.012,106.0,112.0,102.0,13.4,1505.3,325.2,-0.7,1.8,2470.345,13.32,0.041,87.2
2020-07-10T09:04:03,42.805,6.029,0.043,-0.01,-0.011,105.0,112.0,102.0,13.4,1505.3,327.1,-0.7,1.8,2470.397,13.32,0.044,103.1
2020-07-10T09:07:03,42.805,6.029,0.059,-0.011,-0.001,105.0,108.0,103.0,13.4,1505.3,326.2,-0.7,1.8,2470.421,13.32,0.06,100.6
2020-07-10T09:10:03,42.805,6.029,0.035,0.002,0.0,104.0,111.0,103.0,13.3,1505.3,325.9,-0.7,1.8,2470.394,13.32,0.035,86.7
2020-07-10T09:13:03,42.805,6.029,0.038,-0.024,0.007,104.0,111.0,102.0,13.4,1505.3,326.3,-0.7,1.8,2470.369,13.32,0.044,122.3
2020-07-10T09:16:03,42.805,6.029,0.04,-0.017,0.003,104.0,111.0,102.0,13.3,1505.3,323.0,-0.7,1.8,2470.373,13.32,0.043,113.0
2020-07-10T09:19:03,42.805,6.029,0.035,0.002,0.004,104.0,112.0,103.0,13.4,1505.3,323.2,-0.7,1.8,2470.419,13.32,0.035,86.7
2020-07-10T09:22:03,42.805,6.029,0.029,-0.013,0.004,105.0,111.0,102.0,13.4,1505.3,324.2,-0.7,1.8,2470.412,13.32,0.031,114.1
2020-07-10T09:25:03,42.805,6.029,0.042,0.0,0.032,106.0,112.0,102.0,13.4,1505.3,325.0,-0.7,1.8,2470.368,13.32,0.042,90.0
2020-07-10T09:28:03,42.805,6.029,0.031,-0.003,-0.026,105.0,110.0,102.0,13.4,1505.3,323.4,-0.7,1.9,2470.413,13.32,0.031,95.5
2020-07-10T09:31:03,42.805,6.029,0.033,0.009,0.0,104.0,111.0,103.0,13.3,1505.3,324.1,-0.7,1.8,2470.396,13.32,0.034,74.7
2020-07-10T09:34:03,42.805,6.029,0.029,-0.001,0.028,105.0,110.0,101.0,13.4,1505.3,323.3,-0.7,1.8,2470.388,13.32,0.029,92.0
2020-07-10T09:37:02,42.805,6.029,0.038,-0.003,0.014,104.0,112.0,102.0,13.4,1505.3,325.0,-0.7,1.8,2470.376,13.32,0.038,94.5
2020-07-10T09:40:03,42.805,6.029,0.043,-0.001,-0.001,105.0,111.0,103.0,13.4,1505.3,327.4,-0.7,1.8,2470.415,13.32,0.043,91.3
2020-07-10T09:43:03,42.805,6.029,0.037,-0.003,0.021,103.0,110.0,102.0,13.3,1505.3,326.1,-0.7,1.8,2470.393,13.32,0.037,94.6
2020-07-10T09:46:03,42.805,6.029,0.054,-0.013,0.012,105.0,108.0,101.0,13.3,1505.3,326.6,-0.7,1.9,2470.395,13.32,0.055,103.5
2020-07-10T09:49:03,42.805,6.029,0.063,-0.016,0.035,104.0,111.0,101.0,13.4,1505.3,325.8,-0.7,1.8,2470.385,13.32,0.064,104.2
2020-07-10T09:52:03,42.805,6.029,0.042,0.002,-0.006,105.0,106.0,103.0,13.4,1505.3,325.9,-0.7,1.8,2470.408,13.32,0.042,87.3
2020-07-10T09:55:03,42.805,6.029,0.041,-0.005,0.01,104.0,110.0,102.0,13.4,1505.3,327.9,-0.7,1.8,2470.413,13.32,0.041,97.0
2020-07-10T09:58:03,42.805,6.029,0.055,-0.012,-0.003,105.0,109.0,101.0,13.3,1505.3,325.5,-0.7,1.8,2470.423,13.32,0.056,102.3
2020-07-10T10:04:03,42.805,6.029,0.053,0.007,0.0,106.0,110.0,101.0,13.4,1505.2,326.2,-0.7,1.8,2470.394,13.3,0.053,82.5